This is the latest recevied weather packets stored in our database for station/object KD4WXI. If no packets are shown the sender has not sent any weather packets the latest 10 day(s).
| Time | Temp. | Humidity | Pressure | Rain* | Wind** | Luminosity | Snow |
|---|---|---|---|---|---|---|---|
| 1777638310 | 11.11° C | 70% | 1016.6 hPa | 0 mm | - | 83 W/m² | - |
| 1777638005 | 11.11° C | 70% | 1016.7 hPa | 0 mm | - | 74 W/m² | - |
| 1777637702 | 11.11° C | 70% | 1016.7 hPa | 0 mm | - | 96 W/m² | - |
| 1777637399 | 10.56° C | 69% | 1016.5 hPa | 0 mm | - | 73 W/m² | - |
| 1777637095 | 10.56° C | 70% | 1016.3 hPa | 0 mm | - | 56 W/m² | - |
| 1777636791 | 10.56° C | 69% | 1016.5 hPa | 0 mm | - | 40 W/m² | - |
| 1777636488 | 10.56° C | 70% | 1016.4 hPa | 0 mm | - | 46 W/m² | - |
| 1777636184 | 10.56° C | 69% | 1016.6 hPa | 0 mm | - | 43 W/m² | - |
| 1777635879 | 10.56° C | 70% | 1016.7 hPa | 0 mm | - | 42 W/m² | - |
| 1777635576 | 10° C | 71% | 1016.4 hPa | 0 mm | - | 28 W/m² | - |
| 1777635272 | 10° C | 72% | 1016.3 hPa | 0 mm | - | 34 W/m² | - |
| 1777634969 | 10° C | 70% | 1016.7 hPa | 0 mm | - | 29 W/m² | - |
| 1777634666 | 10° C | 71% | 1016.5 hPa | 0 mm | - | 23 W/m² | - |
| 1777634363 | 10° C | 75% | 1016.4 hPa | 0 mm | - | 24 W/m² | - |
| 1777634060 | 10° C | 74% | 1016.6 hPa | 0 mm | - | 23 W/m² | - |
| 1777633756 | 10° C | 73% | 1016.4 hPa | 0 mm | - | 16 W/m² | - |
| 1777633455 | 10° C | 74% | 1016.3 hPa | 0 mm | - | 13 W/m² | - |
| 1777633152 | 10° C | 71% | 1016.5 hPa | 0 mm | - | 7 W/m² | - |
| 1777632848 | 10° C | 71% | 1016.3 hPa | 0 mm | - | 7 W/m² | - |
| 1777632543 | 10° C | 71% | 1016 hPa | 0 mm | - | 5 W/m² | - |
| 1777632241 | 10° C | 71% | 1016.2 hPa | 0 mm | - | 2 W/m² | - |
| 1777631938 | 10° C | 73% | 1016.2 hPa | 0 mm | - | 2 W/m² | - |
| 1777631637 | 10° C | 73% | 1016.2 hPa | 0 mm | - | 1 W/m² | - |
| 1777631334 | 10° C | 76% | 1016.2 hPa | 0 mm | - | 0 W/m² | - |
| 1777631030 | 10° C | 74% | 1016.1 hPa | 0 mm | - | 0 W/m² | - |
* Rain latest hour (hover to see other rain measurements)
** Current wind speed in m/s (hover to see current wind gust speed)